(°C)
29°
29°
28°
26°
25°
24°
23°
(°C)
29°
28°
28°
27°
25°
25°
24°
JJI
JI
IJI
I
ISI
ISI
JI
(km/h)
8-25
11-27
9-14
6-13
6-12
5-9
3-9
(mm)
0
0
0
0
0
0
0
(%)
5
0
0
0
0
0
0

Podizanje Sunca

/ 17.1°
sun-icon
UV 7
06:40
21:30
Mlad mesec (82°)
13:14
02:00

METAR za Alcantarilla (LERI)

Vreme Uslovi Temperatura/
Tačka rose
Vetar Vidljivost Prognoza Oblaci Pritisak Promena Neobrađeno
VFR 30°C / 15°C 230º variable 200º to 270º 7kt >10km - Clouds and Visibility OK 1009 No Significant change LERI 171730Z 23007KT 200V270 CAVOK 30/15 Q1009 NOSIG
VFR 30°C / 14°C variable 2kt >10km - Clouds and Visibility OK 1008 No Significant change LERI 171700Z VRB02KT CAVOK 30/14 Q1008 NOSIG
VFR 29°C / 14°C 310º variable 260º to 340º 4kt >10km - Clouds and Visibility OK 1008 No Significant change LERI 171630Z 31004KT 260V340 CAVOK 29/14 Q1008 NOSIG
VFR 30°C / 14°C variable 1kt >10km - Clouds and Visibility OK 1008 No Significant change LERI 171600Z VRB01KT CAVOK 30/14 Q1008 NOSIG
VFR 31°C / 14°C variable 2kt >10km - Clouds and Visibility OK 1008 No Significant change LERI 171530Z VRB02KT CAVOK 31/14 Q1008 NOSIG
VFR 31°C / 16°C variable 2kt >10km - Clouds and Visibility OK 1008 No Significant change LERI 171500Z VRB02KT CAVOK 31/16 Q1008 NOSIG
VFR 30°C / 14°C variable 2kt >10km - Clouds and Visibility OK 1008 No Significant change LERI 171430Z VRB02KT CAVOK 30/14 Q1008 NOSIG
VFR 30°C / 15°C variable 3kt >10km - Scattered Clouds 5800ft 1009 No Significant change LERI 171400Z VRB03KT 9999 SCT058 30/15 Q1009 NOSIG
VFR 31°C / 15°C 210º 2kt >10km - Scattered Clouds 5500ft 1009 No Significant change LERI 171330Z 21002KT 9999 SCT055 31/15 Q1009 NOSIG
VFR 28°C / 15°C 120º variable 070º to 150º 5kt >10km - Clouds and Visibility OK 1009 No Significant change LERI 171300Z 12005KT 070V150 CAVOK 28/15 Q1009 NOSIG
VFR 29°C / 16°C variable 4kt >10km - Clouds and Visibility OK 1009 No Significant change LERI 171230Z VRB04KT CAVOK 29/16 Q1009 NOSIG
VFR 29°C / 17°C 340º variable 260º to 050º 6kt >10km - Scattered Clouds 4500ft 1010 No Significant change LERI 171200Z 34006KT 260V050 9999 SCT045 29/17 Q1010 NOSIG
VFR 29°C / 16°C variable 2kt >10km - Scattered Clouds 4500ft 1010 No Significant change LERI 171130Z VRB02KT 9999 SCT045 29/16 Q1010 NOSIG
VFR 27°C / 16°C 10º 4kt >10km - Few Clouds 3500ft 1010 No Significant change LERI 171100Z 01004KT 9999 FEW035 27/16 Q1010 NOSIG
VFR 27°C / 16°C variable 3kt >10km - Few Clouds 3500ft 1010 No Significant change LERI 171030Z VRB03KT 9999 FEW035 27/16 Q1010 NOSIG
VFR 26°C / 16°C 210º 2kt >10km - Few Clouds 3500ft 1011 No Significant change LERI 171000Z 21002KT 9999 FEW035 26/16 Q1011 NOSIG
VFR 26°C / 16°C variable 1kt >10km - Few Clouds 3500ft 1011 No Significant change LERI 170930Z VRB01KT 9999 FEW035 26/16 Q1011 NOSIG
VFR 25°C / 16°C variable 3kt Gust 13kt >10km - Few Clouds 3500ft 1011 No Significant change LERI 170900Z VRB03G13KT 9999 FEW035 25/16 Q1011 NOSIG
VFR 24°C / 16°C variable 3kt >10km - Clouds and Visibility OK 1011 No Significant change LERI 170830Z VRB03KT CAVOK 24/16 Q1011 NOSIG
VFR 23°C / 16°C variable 3kt >10km - Clouds and Visibility OK 1010 No Significant change LERI 170800Z VRB03KT CAVOK 23/16 Q1010 NOSIG
VFR 22°C / 17°C 240º variable 170º to 290º 4kt >10km - Clouds and Visibility OK 1011 No Significant change LERI 170730Z 24004KT 170V290 CAVOK 22/17 Q1011 NOSIG
VFR 21°C / 17°C 260º variable 230º to 290º 8kt >10km - Clouds and Visibility OK 1010 No Significant change LERI 170700Z 26008KT 230V290 CAVOK 21/17 Q1010 NOSIG
VFR 20°C / 18°C 190º variable 160º to 220º 5kt >10km - Clouds and Visibility OK 1010 No Significant change LERI 170630Z 19005KT 160V220 CAVOK 20/18 Q1010 NOSIG
VFR 19°C / 18°C variable 2kt >10km - Few Clouds 4000ft 1009 No Significant change LERI 170600Z VRB02KT 9999 FEW040 19/18 Q1009 NOSIG

VFR

30°C / 15°C

[Više]
Vetar 230º variable 200º to 270º 7kt
Vidljivost >10km
Prognoza -
Oblaci Clouds and Visibility OK
Pritisak 1009
Promena No Significant change
Neobrađeno LERI 171730Z 23007KT 200V270 CAVOK 30/15 Q1009 NOSIG

VFR

30°C / 14°C

[Više]
Vetar variable 2kt
Vidljivost >10km
Prognoza -
Oblaci Clouds and Visibility OK
Pritisak 1008
Promena No Significant change
Neobrađeno LERI 171700Z VRB02KT CAVOK 30/14 Q1008 NOSIG

VFR

29°C / 14°C

[Više]
Vetar 310º variable 260º to 340º 4kt
Vidljivost >10km
Prognoza -
Oblaci Clouds and Visibility OK
Pritisak 1008
Promena No Significant change
Neobrađeno LERI 171630Z 31004KT 260V340 CAVOK 29/14 Q1008 NOSIG

VFR

30°C / 14°C

[Više]
Vetar variable 1kt
Vidljivost >10km
Prognoza -
Oblaci Clouds and Visibility OK
Pritisak 1008
Promena No Significant change
Neobrađeno LERI 171600Z VRB01KT CAVOK 30/14 Q1008 NOSIG

VFR

31°C / 14°C

[Više]
Vetar variable 2kt
Vidljivost >10km
Prognoza -
Oblaci Clouds and Visibility OK
Pritisak 1008
Promena No Significant change
Neobrađeno LERI 171530Z VRB02KT CAVOK 31/14 Q1008 NOSIG

VFR

31°C / 16°C

[Više]
Vetar variable 2kt
Vidljivost >10km
Prognoza -
Oblaci Clouds and Visibility OK
Pritisak 1008
Promena No Significant change
Neobrađeno LERI 171500Z VRB02KT CAVOK 31/16 Q1008 NOSIG

VFR

30°C / 14°C

[Više]
Vetar variable 2kt
Vidljivost >10km
Prognoza -
Oblaci Clouds and Visibility OK
Pritisak 1008
Promena No Significant change
Neobrađeno LERI 171430Z VRB02KT CAVOK 30/14 Q1008 NOSIG

VFR

30°C / 15°C

[Više]
Vetar variable 3kt
Vidljivost >10km
Prognoza -
Oblaci Scattered Clouds 5800ft
Pritisak 1009
Promena No Significant change
Neobrađeno LERI 171400Z VRB03KT 9999 SCT058 30/15 Q1009 NOSIG

VFR

31°C / 15°C

[Više]
Vetar 210º 2kt
Vidljivost >10km
Prognoza -
Oblaci Scattered Clouds 5500ft
Pritisak 1009
Promena No Significant change
Neobrađeno LERI 171330Z 21002KT 9999 SCT055 31/15 Q1009 NOSIG

VFR

28°C / 15°C

[Više]
Vetar 120º variable 070º to 150º 5kt
Vidljivost >10km
Prognoza -
Oblaci Clouds and Visibility OK
Pritisak 1009
Promena No Significant change
Neobrađeno LERI 171300Z 12005KT 070V150 CAVOK 28/15 Q1009 NOSIG

VFR

29°C / 16°C

[Više]
Vetar variable 4kt
Vidljivost >10km
Prognoza -
Oblaci Clouds and Visibility OK
Pritisak 1009
Promena No Significant change
Neobrađeno LERI 171230Z VRB04KT CAVOK 29/16 Q1009 NOSIG

VFR

29°C / 17°C

[Više]
Vetar 340º variable 260º to 050º 6kt
Vidljivost >10km
Prognoza -
Oblaci Scattered Clouds 4500ft
Pritisak 1010
Promena No Significant change
Neobrađeno LERI 171200Z 34006KT 260V050 9999 SCT045 29/17 Q1010 NOSIG

VFR

29°C / 16°C

[Više]
Vetar variable 2kt
Vidljivost >10km
Prognoza -
Oblaci Scattered Clouds 4500ft
Pritisak 1010
Promena No Significant change
Neobrađeno LERI 171130Z VRB02KT 9999 SCT045 29/16 Q1010 NOSIG

VFR

27°C / 16°C

[Više]
Vetar 10º 4kt
Vidljivost >10km
Prognoza -
Oblaci Few Clouds 3500ft
Pritisak 1010
Promena No Significant change
Neobrađeno LERI 171100Z 01004KT 9999 FEW035 27/16 Q1010 NOSIG

VFR

27°C / 16°C

[Više]
Vetar variable 3kt
Vidljivost >10km
Prognoza -
Oblaci Few Clouds 3500ft
Pritisak 1010
Promena No Significant change
Neobrađeno LERI 171030Z VRB03KT 9999 FEW035 27/16 Q1010 NOSIG

VFR

26°C / 16°C

[Više]
Vetar 210º 2kt
Vidljivost >10km
Prognoza -
Oblaci Few Clouds 3500ft
Pritisak 1011
Promena No Significant change
Neobrađeno LERI 171000Z 21002KT 9999 FEW035 26/16 Q1011 NOSIG

VFR

26°C / 16°C

[Više]
Vetar variable 1kt
Vidljivost >10km
Prognoza -
Oblaci Few Clouds 3500ft
Pritisak 1011
Promena No Significant change
Neobrađeno LERI 170930Z VRB01KT 9999 FEW035 26/16 Q1011 NOSIG

VFR

25°C / 16°C

[Više]
Vetar variable 3kt Gust 13kt
Vidljivost >10km
Prognoza -
Oblaci Few Clouds 3500ft
Pritisak 1011
Promena No Significant change
Neobrađeno LERI 170900Z VRB03G13KT 9999 FEW035 25/16 Q1011 NOSIG

VFR

24°C / 16°C

[Više]
Vetar variable 3kt
Vidljivost >10km
Prognoza -
Oblaci Clouds and Visibility OK
Pritisak 1011
Promena No Significant change
Neobrađeno LERI 170830Z VRB03KT CAVOK 24/16 Q1011 NOSIG

VFR

23°C / 16°C

[Više]
Vetar variable 3kt
Vidljivost >10km
Prognoza -
Oblaci Clouds and Visibility OK
Pritisak 1010
Promena No Significant change
Neobrađeno LERI 170800Z VRB03KT CAVOK 23/16 Q1010 NOSIG

VFR

22°C / 17°C

[Više]
Vetar 240º variable 170º to 290º 4kt
Vidljivost >10km
Prognoza -
Oblaci Clouds and Visibility OK
Pritisak 1011
Promena No Significant change
Neobrađeno LERI 170730Z 24004KT 170V290 CAVOK 22/17 Q1011 NOSIG

VFR

21°C / 17°C

[Više]
Vetar 260º variable 230º to 290º 8kt
Vidljivost >10km
Prognoza -
Oblaci Clouds and Visibility OK
Pritisak 1010
Promena No Significant change
Neobrađeno LERI 170700Z 26008KT 230V290 CAVOK 21/17 Q1010 NOSIG

VFR

20°C / 18°C

[Više]
Vetar 190º variable 160º to 220º 5kt
Vidljivost >10km
Prognoza -
Oblaci Clouds and Visibility OK
Pritisak 1010
Promena No Significant change
Neobrađeno LERI 170630Z 19005KT 160V220 CAVOK 20/18 Q1010 NOSIG

VFR

19°C / 18°C

[Više]
Vetar variable 2kt
Vidljivost >10km
Prognoza -
Oblaci Few Clouds 4000ft
Pritisak 1009
Promena No Significant change
Neobrađeno LERI 170600Z VRB02KT 9999 FEW040 19/18 Q1009 NOSIG

TAF za Alcantarilla (LERI)

From till


Maximum Temperature 29ºC on . Minimum Temperature 21ºC on .
From till Wind 230º 10kt. Visibility 10km or more. Nil Significant Cloud.
With 40% probability, Temporarly from till Wind 220º 15kt. Gust 25kt.
Becoming from till Wind variable 2kt. Visibility 10km or more. Nil Significant Cloud.
Becoming from till Wind 60º 10kt. Visibility 10km or more. Nil Significant Cloud.

Neobrađeno: TAF LERI 171700Z 1718/1818 23010KT CAVOK TX29/1814Z TN21/1800Z PROB40 TEMPO 1718/1720 22015G25KT BECMG 1720/1722 VRB02KT BECMG 1804/1806 06010KT

rainNOW

0.0 mm
0.0 mm
0.0 mm
0.0 mm
0.0 mm
0.0 mm
0.0 mm
0.0 mm
0.0 mm
0.0 mm
0.0 mm
0.0 mm

Trenutni satelitski snimci i slike kiše za Alcantarilla, Шпанија

Marker lokacije postavljen je na Alcantarilla. [Više]

Satelitski snimci u realnom vremenu kombinuju vidljivu svetlost tokom dana sa infracrvenim zračenjem tokom noći. Noću slika nije tamna jer infracrveno zračenje može otkriti temperaturne razlike. Nažalost, niski oblaci i magla teško se mogu razlikovati od temperature zemlje tako da mogu biti skoro nevidljivi tokom noći. Meteosat satelitski snimci za Evropu se ažuriraju u realnom vremenu na svakih 5 minuta. Slnimci GOES-16/GOES-17 (Severna i Južna Amerika) and Himawari (Azia) ažuriraju se na svakih 10 minuta.

Padavine su procenjene na osnovu radara i satelita. U noćnim uslovima satelitske procene padavina su manje precizne od dnevnih. Narandžasti preseci obeležavaju mesta gde je munja otkrivena (preko Evropa).

Autorsko pravo 2021 EUMETSAT / meteoblue. Podaci za munje obezbeđeni od nowcast.

Radar za Alcantarilla

Marker lokacije postavljen je na Alcantarilla. Ova animacija prikazuje radar padavina za poslednjih 1 sati. Moguće je da rominjanje i slab sneg ne budu vidljivi na ovom radaru. Intezitet padavina je predstavljen bojama koje varijaju od svetlo plave do jako ljubičaste.
Radar data source: AEMET.

Aktuelne vremenske prilike i upozorenja

EUMETNET – MeteoAlarm

pictomap

Izvor: AEMET

Vreme kašnjenja između ove web stranice i www.meteoalarm.eu web stranice je moguće, za najnovije informacije o nivou upozorenja koja su izdata od strane Republičkog Hidrometeorološkog Zavoda molimo Vas da koristite www.meteoalarm.eu.